• MPC Preparation (Info)

  • MPEC 2016-J124: 2016 JA29

    The following Minor Planet Electronic Circular may be linked-to from your own Web pages, but must not otherwise be redistributed electronically.

    A form allowing access to any MPEC is at the bottom of this page.


    Read MPEC 2016-J123 Read MPEC 2016-J125


    M.P.E.C. 2016-J124                               Issued 2016 May 13, 15:25 UT
    
         The Minor Planet Electronic Circulars contain information on unusual
             minor planets and routine data on comets.  They are published
        on behalf of Division F of the International Astronomical Union by the
              Minor Planet Center, Smithsonian Astrophysical Observatory,
                              Cambridge, MA 02138, U.S.A.
    
                 Prepared using the Tamkin Foundation Computer Network
    
                                  MPC@CFA.HARVARD.EDU
                URL https://www.minorplanetcenter.net/    ISSN 1523-6714
    
                                       2016 JA29
    
    Observations:
         K16J29A* C2016 05 11.37097 15 23 39.58 +09 11 59.7          20.7 VqEJ124G96
         K16J29A  C2016 05 11.38002 15 23 41.43 +09 15 04.9          20.8 VqEJ124G96
         K16J29A  C2016 05 11.38454 15 23 42.35 +09 16 37.2          21.4 VqEJ124G96
         K16J29A  C2016 05 11.42375315 23 50.31 +09 29 52.5          20.8 VtEJ124H01
         K16J29A  C2016 05 11.43022 15 23 51.84 +09 32 06.0          20.8 VqEJ124I52
         K16J29A  C2016 05 11.43060915 23 51.78 +09 32 11.7          21.5 VtEJ124H01
         K16J29A  C2016 05 11.43168 15 23 52.21 +09 32 35.1          20.8 VqEJ124I52
         K16J29A  C2016 05 11.43313 15 23 52.48 +09 33 06.0          21.3 VqEJ124I52
         K16J29A  C2016 05 11.43785515 23 53.35 +09 34 39.0          20.7 VtEJ124H01
         K16J29A  C2016 05 11.44463615 23 54.81 +09 36 56.5          20.5 VtEJ124H01
         K16J29A 2C2016 05 11.48273115 24 06.468+09 50 20.15         20.3 RtEJ124568
         K16J29A 2C2016 05 11.48316915 24 06.560+09 50 29.05         20.3 RtEJ124568
         K16J29A  C2016 05 11.95819 15 26 01.77 +12 28 35.9          21.1 VSEJ124033
         K16J29A  C2016 05 11.96060 15 26 02.28 +12 29 22.9          20.7 VSEJ124033
         K16J29A  C2016 05 11.96301 15 26 02.79 +12 30 11.4          20.5 VSEJ124033
         K16J29A  C2016 05 11.96542 15 26 03.29 +12 30 58.6          21.0 VSEJ124033
         K16J29A  C2016 05 11.97023 15 26 04.30 +12 32 33.5          21.5 VSEJ124033
         K16J29A  C2016 05 11.99735 15 26 09.98 +12 41 29.8          20.8 VSEJ124033
         K16J29A  C2016 05 11.99976 15 26 10.49 +12 42 17.5          20.5 VSEJ124033
         K16J29A  C2016 05 12.00216 15 26 11.02 +12 43 05.4          20.5 VSEJ124033
         K16J29A  C2016 05 12.00457 15 26 11.49 +12 43 52.1          21.1 VSEJ124033
         K16J29A  C2016 05 12.00698 15 26 12.04 +12 44 40.3          20.4 VSEJ124033
         K16J29A  C2016 05 12.00939 15 26 12.54 +12 45 27.0          20.8 VSEJ124033
         K16J29A KC2016 05 12.25166 15 27 13.04 +14 05 01.8                oEJ124291
         K16J29A KC2016 05 12.25516 15 27 13.80 +14 06 10.0          21.1 RoEJ124291
         K16J29A KC2016 05 12.25867 15 27 14.43 +14 07 18.2                oEJ124291
         K16J29A  C2016 05 12.31703 15 27 26.08 +14 26 10.4          19.1 VqEJ124I52
         K16J29A  C2016 05 12.31849 15 27 26.33 +14 26 38.5          19.4 VqEJ124I52
         K16J29A  C2016 05 12.31994 15 27 26.63 +14 27 05.8          19.4 VqEJ124I52
         K16J29A  C2016 05 12.32140 15 27 26.95 +14 27 34.4          19.6 VqEJ124I52
         K16J29A  C2016 05 12.39474715 27 41.41 +14 51 05.1          21.0 VtEJ124H01
         K16J29A  C2016 05 12.40202615 27 42.92 +14 53 24.6          20.3 VtEJ124H01
         K16J29A  C2016 05 12.41345415 27 45.30 +14 57 03.5          20.6 VtEJ124H01
         K16J29A  C2016 05 12.41930715 27 46.53 +14 58 55.6          21.2 VtEJ124H01
         K16J29A KC2016 05 13.26850 15 31 10.63 +19 22 50.4                oEJ124291
         K16J29A KC2016 05 13.27287 15 31 11.50 +19 24 09.2                oEJ124291
         K16J29A KC2016 05 13.27728 15 31 12.37 +19 25 29.0                oEJ124291
         K16J29A  C2016 05 13.30519 15 31 17.79 +19 33 54.1          21.0 VqEJ124G96
         K16J29A  C2016 05 13.31137 15 31 19.00 +19 35 43.3          20.7 VqEJ124G96
         K16J29A  C2016 05 13.32018 15 31 20.71 +19 38 21.1          20.9 VqEJ124G96
         K16J29A  C2016 05 13.32636 15 31 21.95 +19 40 11.4          20.5 VqEJ124G96
    
    Observer details:
    033 Karl Schwarzschild Observatory, Tautenburg.  Observers B. Stecklum,
        U. Laux.  Measurer B. Stecklum.  1.34-m f/3 Schmidt + CCD.
    291 LPL/Spacewatch II.  Observer T. H. Bressi.  1.8-m f/2.7 reflector + CCD.
    568 Mauna Kea.  Observers D. Hung, Y. Ramanjooloo.  Measurer D. J. Tholen.
        2.24-m University of Hawaii reflector.
    G96 Mt. Lemmon Survey.  Observers R. G. Matheny, D. C. Fuls.  Measurers
        E. J. Christensen, D. C. Fuls, A. R. Gibbs, A. D. Grauer, J. A. Johnson,
        R. A. Kowalski, S. M. Larson, G. J. Leonard, R. G. Matheny, R. L. Seaman,
        F. C. Shelly.  1.5-m reflector + CCD.
    H01 Magdalena Ridge Observatory, Socorro.  Observers W. H. Ryan, E. V. Ryan.
        Measurer W. H. Ryan.  2.4-m f/8.9 reflector + CCD.
    I52 Steward Observatory, Mt. Lemmon Station.  Observers E. J. Christensen,
        G. J. Leonard.  Measurers E. J. Christensen, D. C. Fuls, A. R. Gibbs,
        A. D. Grauer, J. A. Johnson, R. A. Kowalski, S. M. Larson, G. J. Leonard,
        R. G. Matheny, R. L. Seaman, F. C. Shelly.  1.0-m reflector + CCD.
    
    Orbital elements:
    2016 JA29                                                Earth MOID = 0.0841 AU
    Epoch 2016 July 31.0 TT = JDT 2457600.5                 MPC
    M  30.00065              (2000.0)            P               Q
    n   0.55860912     Peri.   31.28024     -0.25355459     +0.90464717
    a   1.4601496      Node   226.65322     -0.95594784     -0.28847787
    e   0.2723924      Incl.   28.09996     -0.14789791     +0.31367822
    P   1.76           H   24.6           G   0.15           U   7
    Residuals in seconds of arc
    160511 G96  0.4+  0.2-    160511 033  0.2+  0.6+    160512 I52  0.0   1.1-
    160511 G96  0.3+  0.3+    160511 033  0.1+  0.1+    160512 I52  0.4+  0.7-
    160511 G96  0.1+  0.4+    160511 033  0.1+  0.2-    160512 H01  0.2-  0.0
    160511 H01  0.0   0.2+    160511 033  0.1-  0.0     160512 H01  0.1-  0.0
    160511 I52  0.5-  0.8-    160511 033  0.0   0.2+    160512 H01  0.0   0.0
    160511 H01  0.1+  0.1+    160512 033  0.4+  0.7+    160512 H01  0.1+  0.0
    160511 I52  0.3+  1.3-    160512 033  0.2-  0.2-    160513 291  0.2-  0.3-
    160511 I52  0.2-  0.1+    160512 033  0.5+  0.5+    160513 291  0.1-  0.5-
    160511 H01  0.4+  0.2+    160512 033  0.4+  0.3-    160513 291  0.1-  0.4-
    160511 H01  0.3+  0.0     160512 291  0.0   0.2+    160513 G96  0.1+  2.5+
    160511 568  0.1-  0.0     160512 291  0.8+  0.2+    160513 G96  0.1+  0.6+
    160511 568  0.0   0.0     160512 291  0.4-  0.0     160513 G96  0.2-  0.2+
    160511 033  0.1+  0.5+    160512 I52  0.4+  0.1-    160513 G96  0.2+  0.4-
    160511 033  0.1+  0.2-    160512 I52  0.2-  0.3-
    
    Ephemeris:
    2016 JA29                a,e,i = 1.46, 0.27, 28                  q = 1.0624
    Date    TT    R. A. (2000) Decl.     Delta      r     Elong.  Phase     V
    2016 04 13    13 33 24.0 -66 44 13   0.2571  1.1607   122.3    46.9    23.7
    ...
    2016 04 28    14 27 52.1 -51 03 00   0.1343  1.1171   143.1    32.8    21.9
    ...
    2016 05 06    15 01 39.5 -21 53 17   0.08979 1.0983   174.3     5.3    20.0
    ...
    2016 05 12    15 26 11.1 +12 43 08   0.08777 1.0865   149.1    28.6    20.8
    2016 05 13    15 30 06.3 +18 01 26   0.09067 1.0847   143.5    33.6    21.0
    2016 05 14    15 33 57.9 +22 56 00   0.09434 1.0830   138.4    38.3    21.2
    ...
    2016 05 20    15 55 42.6 +43 52 08   0.1275  1.0742   116.1    57.8    22.4
    ...
    2016 05 28    16 20 32.1 +56 55 58   0.1850  1.0662   101.6    68.6    23.5
    ...
    2016 06 12    16 55 30.5 +65 38 52   0.2966  1.0632    91.1    72.7    24.6
    
    A. U. Tomatic                (C) Copyright 2016 MPC           M.P.E.C. 2016-J124
    

    Read MPEC 2016-J123 Read MPEC 2016-J125


    MPEC number:

    Enter an MPEC number in one of the following forms:

    • 1997-B01 (the full form)
    • J97B01 (the packed version of the full form)
    • B01 (the abbreviated form)